QPF
0.00 0.00 0.00 0.00 0.00 0.00 0.00 0.02 0.06 0.01 0.00 0.00 0.00 0.00 0.00 0.00 0.00 0.00 0.00 0.00 0.00 0.00 0.00 0.00 0.00 0.00 0.00 0.00 0.00 0.00 0.00 0.00 0.00 0.00 0.00 0.00 0.00 0.00 0.00 0.00 0.00 0.01 0.00 0.00
0.00 0.00 0.00 0.00 0.00 0.00 0.00 0.00 0.00 0.00 0.00 0.00 0.00 0.00 0.00 0.00 0.00 0.00 0.00 0.00 0.00 0.00 0.00 0.00 0.00 0.00 0.00 0.00 0.00 0.00 0.00 0.00 0.00 0.00 0.00 0.00 0.00 0.00 0.00 0.00 0.00 0.00 0.00 0.00
0.00 0.00 0.00 0.00 0.00 0.00 0.00 0.00 0.00 0.01 0.04 0.00 0.00 0.00 0.00 0.05 0.00 0.00 0.00 0.00 0.00 0.00 0.00 0.00 0.00 0.00 0.00 0.00 0.00 0.00 0.00 0.00 0.00 0.00 0.00 0.00 0.00 0.00 0.00 0.00 0.00 0.00 0.00 0.00
0.00 0.00 0.00 0.00 0.00 0.00 0.00 0.00 0.00 0.00 0.01 0.00 0.00 0.00 0.00 0.00 0.00 0.00 0.00 0.00 0.00 0.00 0.00 0.00 0.00 0.00 0.00 0.00 0.00 0.00 0.00 0.00 0.00 0.00 0.00 0.00 0.00 0.00 0.06 0.09 0.00 0.01 0.00 0.00
0.00 0.00 0.00 0.00 0.00 0.00 0.00 0.00 0.00 0.00 0.00 0.00 0.00 0.00 0.00 0.00 0.00 0.00 0.00 0.00 0.00 0.00 0.00 0.00 0.00 0.00 0.00 0.00 0.00 0.00 0.00 0.00 0.00 0.00 0.00 0.00 0.00 0.00 0.16 0.40 0.03 0.04 0.06 0.02
0.00 0.00 0.00 0.00 0.00 0.00 0.00 0.00 0.00 0.00 0.00 0.00 0.00 0.00 0.00 0.00 0.00 0.00 0.00 0.00 0.00 0.00 0.00 0.00 0.00 0.00 0.00 0.00 0.00 0.00 0.00 0.00 0.00 0.00 0.00 0.01 0.02 0.00 0.03 0.19 0.06 0.02 0.00 0.04
0.00 0.00 0.00 0.00 0.00 0.00 0.00 0.00 0.00 0.00 0.00 0.00 0.00 0.00 0.00 0.00 0.00 0.00 0.00 0.00 0.00 0.00 0.00 0.00 0.00 0.00 0.00 0.00 0.00 0.00 0.00 0.00 0.00 0.00 0.00 0.00 0.00 0.00 0.03 0.20 0.06 0.00 0.00 0.00
0.00 0.00 0.00 0.00 0.00 0.00 0.00 0.00 0.00 0.00 0.00 0.00 0.00 0.00 0.00 0.00 0.00 0.00 0.00 0.00 0.00 0.00 0.00 0.00 0.00 0.00 0.00 0.00 0.00 0.00 0.00 0.00 0.00 0.00 0.00 0.00 0.00 0.00 0.00 0.00 0.00 0.00 0.00 0.00
0.00 0.00 0.00 0.00 0.00 0.00 0.00 0.00 0.00 0.00 0.00 0.00 0.00 0.00 0.00 0.00 0.00 0.00 0.00 0.00 0.00 0.00 0.00 0.00 0.00 0.00 0.00 0.00 0.00 0.00 0.00 0.00 0.00 0.00 0.00 0.00 0.00 0.00 0.00 0.00 0.00 0.00 0.00 0.01
0.00 0.00 0.00 0.00 0.00 0.00 0.00 0.00 0.00 0.00 0.00 0.00 0.00 0.00 0.00 0.00 0.00 0.00 0.01 0.00 0.00 0.00 0.00 0.00 0.00 0.00 0.00 0.00 0.00 0.00 0.00 0.00 0.00 0.00 0.00 0.00 0.00 0.00 0.00 0.01 0.00 0.00 0.01 0.02
0.00 0.00 0.00 0.00 0.00 0.00 0.00 0.00 0.00 0.00 0.00 0.00 0.00 0.00 0.00 0.00 0.00 0.00 0.00 0.00 0.00 0.00 0.00 0.00 0.00 0.00 0.00 0.00 0.00 0.00 0.00 0.00 0.00 0.00 0.00 0.00 0.00 0.00 0.00 0.00 0.00 0.00 0.02 0.04
0.00 0.00 0.00 0.00 0.00 0.00 0.00 0.00 0.00 0.00 0.00 0.00 0.00 0.00 0.00 0.00 0.00 0.00 0.00 0.00 0.00 0.00 0.00 0.00 0.00 0.00 0.00 0.00 0.00 0.00 0.00 0.00 0.00 0.00 0.00 0.00 0.00 0.00 0.00 0.00 0.00 0.00 0.00 0.02
0.00 0.00 0.00 0.00 0.00 0.00 0.00 0.00 0.00 0.00 0.00 0.00 0.00 0.00 0.00 0.00 0.00 0.00 0.00 0.00 0.00 0.00 0.00 0.00 0.00 0.00 0.00 0.00 0.00 0.00 0.00 0.00 0.00 0.00 0.00 0.00 0.00 0.00 0.00 0.00 0.00 0.00 0.00 0.02
0.00 0.00 0.00 0.00 0.00 0.00 0.00 0.00 0.00 0.00 0.00 0.00 0.00 0.00 0.00 0.00 0.00 0.00 0.00 0.00 0.00 0.00 0.00 0.00 0.00 0.00 0.00 0.00 0.00 0.00 0.00 0.00 0.00 0.00 0.00 0.00 0.00 0.00 0.00 0.00 0.00 0.00 0.00 0.00
0.00 0.00 0.00 0.00 0.00 0.00 0.00 0.00 0.00 0.00 0.00 0.00 0.00 0.00 0.00 0.00 0.00 0.00 0.00 0.00 0.00 0.00 0.00 0.00 0.00 0.00 0.00 0.00 0.00 0.00 0.00 0.00 0.00 0.00 0.00 0.00 0.01 0.00 0.00 0.00 0.00 0.00 0.00 0.00
0.00 0.00 0.00 0.00 0.00 0.00 0.00 0.00 0.00 0.00 0.00 0.00 0.00 0.00 0.02 0.01 0.00 0.00 0.00 0.00 0.00 0.00 0.00 0.00 0.00 0.00 0.00 0.00 0.00 0.00 0.00 0.00 0.00 0.00 0.00 0.00 0.02 0.01 0.00 0.00 0.00 0.02 0.02 0.00
0.00 0.00 0.00 0.00 0.00 0.00 0.00 0.00 0.00 0.00 0.00 0.00 0.00 0.04 0.05 0.04 0.00 0.00 0.00 0.00 0.00 0.00 0.00 0.00 0.00 0.00 0.00 0.00 0.00 0.00 0.00 0.00 0.00 0.00 0.00 0.00 0.00 0.00 0.00 0.01 0.02 0.10 0.09 0.03
0.00 0.00 0.00 0.00 0.00 0.00 0.00 0.00 0.00 0.00 0.00 0.00 0.00 0.37 0.41 0.47 0.04 0.00 0.00 0.00 0.00 0.00 0.00 0.00 0.00 0.00 0.00 0.00 0.00 0.00 0.00 0.00 0.00 0.00 0.00 0.00 0.00 0.00 0.01 0.01 0.04 0.07 0.07 0.01
0.00 0.00 0.00 0.00 0.00 0.00 0.00 0.00 0.00 0.00 0.00 0.00 0.00 0.00 0.01 0.07 0.01 0.00 0.00 0.00 0.00 0.00 0.00 0.00 0.00 0.00 0.00 0.00 0.00 0.00 0.00 0.00 0.00 0.00 0.00 0.00 0.00 0.00 0.03 0.05 0.07 0.06 0.02 0.00
0.00 0.00 0.00 0.00 0.00 0.00 0.00 0.00 0.00 0.00 0.00 0.00 0.00 0.00 0.00 0.00 0.00 0.00 0.00 0.00 0.00 0.00 0.00 0.00 0.00 0.00 0.00 0.00 0.00 0.00 0.00 0.01 0.01 0.00 0.00 0.00 0.00 0.00 0.02 0.06 0.06 0.03 0.04 0.00
0.00 0.00 0.00 0.00 0.00 0.00 0.02 0.00 0.00 0.00 0.00 0.00 0.00 0.00 0.00 0.00 0.00 0.00 0.00 0.00 0.00 0.00 0.00 0.00 0.00 0.00 0.00 0.00 0.00 0.00 0.00 0.00 0.04 0.04 0.06 0.02 0.00 0.01 0.03 0.06 0.10 0.15 0.19 0.05
0.00 0.00 0.00 0.00 0.00 0.00 0.01 0.00 0.00 0.00 0.00 0.00 0.00 0.00 0.00 0.00 0.00 0.00 0.00 0.00 0.00 0.00 0.00 0.00 0.00 0.00 0.00 0.00 0.00 0.00 0.00 0.00 0.00 0.02 0.10 0.10 0.08 0.03 0.00 0.03 0.03 0.04 0.15 0.43
0.00 0.00 0.00 0.01 0.00 0.00 0.00 0.00 0.00 0.00 0.00 0.00 0.00 0.00 0.00 0.00 0.00 0.00 0.00 0.00 0.00 0.00 0.00 0.00 0.00 0.00 0.00 0.00 0.00 0.00 0.00 0.00 0.00 0.01 0.02 0.03 0.05 0.06 0.10 0.13 0.08 0.04 0.19 0.79
0.00 0.00 0.00 0.00 0.00 0.00 0.00 0.00 0.00 0.00 0.00 0.00 0.00 0.00 0.00 0.00 0.00 0.00 0.00 0.00 0.00 0.00 0.00 0.00 0.00 0.00 0.00 0.00 0.00 0.00 0.00 0.00 0.00 0.00 0.00 0.01 0.04 0.04 0.11 0.14 0.13 0.14 0.16 0.25
0.00 0.00 0.00 0.00 0.00 0.00 0.00 0.00 0.00 0.00 0.00 0.00 0.00 0.00 0.00 0.00 0.00 0.00 0.00 0.00 0.00 0.00 0.00 0.00 0.00 0.00 0.00 0.00 0.00 0.00 0.00 0.00 0.00 0.00 0.00 0.03 0.01 0.01 0.03 0.04 0.07 0.08 0.12 0.14
0.00 0.00 0.00 0.00 0.00 0.00 0.00 0.00 0.00 0.00 0.00 0.00 0.00 0.00 0.00 0.00 0.00 0.00 0.00 0.00 0.00 0.00 0.00 0.00 0.00 0.00 0.00 0.00 0.00 0.00 0.00 0.00 0.00 0.00 0.00 0.01 0.01 0.00 0.01 0.03 0.07 0.12 0.16 0.15
MSLP
1000.03 999.91 999.07 998.61 998.11 997.80 998.32 1001.55 1003.07 1001.18 1000.32 1000.11 1000.17 1000.62 1000.42 1000.96 1001.17 1001.49 1002.27 1003.31 1004.08 1004.69 1005.25 1006.13 1006.86 1007.36 1008.31 1009.30 1010.36 1011.16 1011.54 1011.97 1012.75 1013.57 1014.01 1014.04 1013.90 1013.66 1013.50 1013.89 1014.33 1014.35 1014.31 1015.03
999.61 998.84 998.61 998.26 997.83 997.62 997.60 998.35 999.03 1001.29 1001.49 1000.02 999.70 999.76 999.73 1000.89 1000.60 1000.38 1000.54 1001.73 1002.89 1003.86 1004.52 1005.41 1006.29 1006.91 1007.92 1009.03 1010.18 1011.02 1011.48 1012.00 1012.44 1013.04 1013.40 1013.42 1013.22 1013.17 1012.97 1013.23 1013.46 1013.73 1014.47 1015.01
998.59 997.98 997.97 997.73 997.44 997.33 997.15 997.47 998.33 1000.66 1003.05 1000.84 1000.07 999.16 1000.37 1001.01 1000.72 999.86 999.70 1000.41 1001.52 1002.68 1003.69 1004.55 1005.57 1006.31 1007.16 1008.36 1009.46 1010.56 1011.19 1011.82 1012.32 1012.57 1012.88 1012.92 1012.84 1013.09 1013.97 1014.44 1014.37 1013.90 1013.97 1014.58
997.92 997.60 996.99 997.09 997.22 997.07 996.62 996.83 997.77 999.49 1000.13 999.52 998.78 998.38 998.54 999.73 998.96 999.16 999.19 999.44 1000.19 1001.47 1002.66 1003.44 1004.45 1005.65 1006.41 1007.52 1008.72 1009.73 1010.84 1011.47 1012.06 1012.36 1012.49 1012.59 1012.73 1014.20 1015.30 1015.82 1014.51 1014.48 1013.75 1014.19
997.52 997.10 997.05 996.75 996.62 996.87 996.66 996.76 997.16 997.57 997.76 997.64 997.55 998.83 998.10 998.52 997.69 998.71 998.23 998.66 999.19 1000.06 1001.18 1002.38 1003.28 1004.50 1005.56 1006.62 1007.79 1009.02 1010.19 1011.08 1011.67 1012.10 1012.24 1012.22 1012.51 1013.87 1015.04 1014.89 1014.36 1014.27 1013.78 1014.01
997.51 996.86 996.95 996.99 996.75 996.81 996.93 997.29 997.31 997.69 997.85 997.61 997.12 997.68 998.01 998.23 997.47 997.24 997.21 997.81 998.12 998.92 1000.03 1001.31 1002.37 1003.43 1004.61 1005.76 1006.96 1008.25 1009.59 1010.62 1011.35 1011.81 1012.05 1012.21 1012.11 1012.85 1014.06 1015.94 1015.26 1014.30 1013.56 1014.39
997.44 996.87 996.81 997.05 996.92 997.04 997.23 997.28 997.11 997.17 997.28 996.70 997.07 996.58 996.76 997.10 996.56 996.71 997.04 997.20 997.56 998.01 999.04 1000.47 1001.74 1002.70 1004.00 1005.15 1006.33 1007.51 1008.78 1009.94 1010.79 1011.26 1011.70 1011.93 1011.98 1011.65 1013.12 1014.01 1014.04 1014.01 1013.79 1014.68
996.39 996.56 996.58 996.80 996.99 996.48 996.71 996.84 996.58 996.62 996.20 996.15 997.08 999.02 999.91 996.59 996.37 996.69 996.85 996.98 997.42 997.85 998.50 999.95 1001.39 1002.36 1003.49 1004.53 1005.67 1006.71 1008.06 1009.20 1010.12 1010.85 1011.19 1011.53 1011.88 1011.76 1011.52 1012.41 1012.78 1013.06 1014.01 1014.55
995.00 995.01 995.17 995.99 996.49 996.67 995.98 996.51 996.46 996.20 995.97 996.08 997.74 998.24 997.11 996.49 996.44 996.44 996.48 997.08 997.27 997.86 998.65 999.74 1000.96 1002.08 1003.00 1003.99 1005.10 1006.14 1007.55 1008.56 1009.48 1010.22 1010.83 1011.12 1011.53 1011.84 1011.93 1012.09 1012.70 1013.43 1013.87 1014.17
995.31 994.81 994.71 995.73 996.27 996.51 995.99 995.79 996.14 996.34 996.11 996.22 997.56 996.77 996.75 996.83 996.52 996.43 997.14 997.32 998.08 997.91 998.94 999.72 1000.52 1001.52 1002.36 1003.26 1004.46 1005.71 1007.01 1008.01 1008.82 1009.62 1010.31 1010.72 1011.16 1011.71 1012.01 1012.24 1012.83 1013.27 1013.60 1014.03
995.68 995.15 995.13 995.58 996.02 995.76 995.99 995.73 995.23 995.03 995.38 995.65 996.53 997.56 997.33 997.28 996.93 996.70 997.15 997.45 996.48 997.60 998.99 999.76 1000.30 1001.03 1001.73 1002.53 1003.55 1004.72 1006.02 1007.29 1008.23 1008.97 1009.64 1010.22 1010.79 1011.30 1011.74 1011.97 1012.40 1012.92 1013.28 1013.85
995.80 994.95 994.88 995.15 995.51 995.86 995.42 995.28 994.87 994.75 995.70 995.58 996.35 997.18 996.87 997.32 997.41 997.35 997.37 997.86 997.93 998.19 999.02 999.84 1000.40 1001.18 1001.71 1002.20 1003.00 1003.92 1005.02 1006.15 1007.36 1008.04 1008.73 1009.50 1010.17 1010.59 1011.14 1011.55 1012.02 1012.52 1013.10 1013.77
995.65 995.16 995.00 994.97 995.55 995.67 995.10 994.86 994.64 994.48 994.40 995.93 996.44 997.22 997.39 997.45 997.75 998.07 998.45 999.31 999.67 999.87 1000.17 1000.45 1000.99 1001.62 1002.10 1002.57 1002.99 1003.64 1004.58 1005.41 1006.32 1007.38 1008.12 1008.88 1009.53 1010.07 1010.55 1011.13 1011.59 1012.20 1012.81 1013.46
996.19 995.94 996.14 995.74 995.00 994.86 995.15 994.90 994.55 994.44 994.73 995.34 996.49 997.06 997.68 997.92 998.54 998.96 999.20 999.71 1000.22 1000.63 1001.19 1001.32 1001.59 1002.33 1002.90 1003.13 1003.56 1004.11 1004.76 1005.34 1005.91 1006.69 1007.30 1007.97 1008.79 1009.53 1010.17 1010.67 1011.14 1011.74 1012.36 1013.04
996.13 996.17 996.60 996.48 995.85 994.74 994.79 994.55 994.64 994.70 995.07 996.04 997.30 998.54 998.68 999.28 999.69 999.95 999.86 1000.08 1000.70 1001.22 1001.84 1002.46 1002.70 1003.16 1003.46 1003.81 1004.24 1004.78 1005.27 1005.65 1006.03 1006.49 1007.14 1007.79 1008.64 1009.41 1010.18 1010.87 1011.30 1011.49 1012.07 1012.64
996.10 996.26 996.79 996.26 995.23 994.95 994.82 994.60 994.52 994.93 995.70 996.60 998.41 1001.36 1002.19 1000.12 1001.16 1001.26 1001.32 1001.25 1001.54 1002.24 1002.79 1003.26 1003.40 1003.41 1003.65 1004.07 1004.37 1004.98 1005.54 1005.91 1006.36 1006.82 1007.40 1007.70 1008.22 1008.80 1009.43 1010.01 1010.69 1011.45 1012.15 1012.53
995.61 995.28 995.65 995.61 995.59 995.57 995.33 994.73 994.66 995.17 996.13 997.48 1000.72 1004.21 1005.04 1005.55 1001.53 1002.05 1001.78 1001.91 1002.16 1002.58 1003.25 1003.54 1003.69 1003.55 1003.79 1003.93 1004.50 1005.11 1005.71 1006.23 1006.72 1007.09 1007.55 1007.97 1008.39 1008.81 1009.16 1009.57 1010.13 1010.73 1011.65 1012.41
995.36 995.40 995.64 996.15 996.95 996.75 995.56 995.22 995.12 995.57 996.63 999.41 1001.81 1003.10 1004.22 1006.39 1004.61 1001.76 1001.96 1002.37 1002.71 1002.85 1003.33 1003.59 1003.69 1003.70 1004.02 1004.56 1004.96 1005.35 1005.82 1006.41 1006.73 1006.92 1006.84 1007.16 1007.77 1007.96 1008.48 1009.04 1009.87 1010.54 1011.37 1011.76
994.69 995.15 995.50 996.67 997.45 998.27 996.65 996.37 996.33 996.48 997.31 999.45 1001.41 1002.44 1003.88 1004.89 1003.52 1001.88 1002.17 1002.69 1002.99 1003.16 1003.45 1003.59 1003.57 1003.54 1004.03 1004.36 1004.73 1005.41 1005.87 1006.52 1006.88 1007.09 1007.50 1007.80 1007.72 1008.29 1008.59 1008.65 1009.04 1009.51 1010.73 1011.67
994.77 995.27 995.70 996.87 997.73 998.81 999.24 997.54 997.24 996.79 997.49 997.99 999.71 1001.54 1002.42 1001.47 1001.82 1002.71 1002.77 1002.91 1003.02 1003.31 1003.73 1003.80 1003.65 1003.73 1004.13 1004.74 1005.08 1005.19 1005.55 1006.10 1006.73 1007.02 1007.19 1007.41 1007.80 1008.45 1008.39 1008.74 1009.40 1009.42 1010.55 1011.05
995.59 995.86 996.22 996.92 998.40 1000.12 1000.90 998.50 997.61 997.89 999.24 998.51 998.70 999.29 999.87 1000.86 1001.65 1002.24 1002.42 1002.56 1003.01 1003.46 1003.65 1003.91 1003.96 1004.19 1004.63 1004.88 1005.30 1005.49 1005.52 1005.58 1005.75 1006.04 1006.50 1006.82 1007.06 1007.36 1007.85 1008.05 1008.37 1009.19 1010.16 1010.55
996.21 996.82 997.18 997.97 998.72 1000.57 1000.33 998.97 998.80 999.36 999.36 999.16 998.89 999.36 1000.02 1000.65 1001.15 1001.71 1002.26 1002.71 1003.01 1003.42 1003.72 1003.98 1004.26 1004.46 1004.77 1004.84 1005.05 1005.32 1005.74 1005.96 1005.94 1006.00 1006.14 1006.44 1006.57 1006.70 1006.89 1007.19 1007.93 1008.75 1009.49 1010.30
997.31 997.63 998.82 1000.79 1000.56 1000.11 999.73 999.86 999.94 999.74 999.35 999.82 999.85 999.88 1000.14 1000.39 1000.85 1001.70 1002.29 1002.73 1003.09 1003.34 1003.68 1003.97 1004.36 1004.68 1004.94 1005.37 1005.41 1005.62 1005.97 1006.15 1006.18 1006.07 1006.03 1005.94 1006.11 1006.19 1006.47 1007.14 1007.71 1008.58 1009.27 1010.27
997.63 998.29 999.51 1000.55 1000.68 999.86 999.86 1000.34 1000.67 1000.44 1000.26 1000.06 1000.09 1000.14 1000.51 1000.70 1000.97 1001.61 1002.28 1002.67 1003.07 1003.55 1003.95 1004.28 1004.65 1004.98 1005.17 1005.34 1005.45 1005.45 1005.62 1005.89 1006.08 1006.01 1005.98 1005.93 1005.98 1006.30 1006.63 1007.13 1007.80 1008.37 1008.77 1009.57
999.24 999.64 999.93 1000.10 1000.09 1000.22 1000.56 1000.88 1001.01 1001.10 1001.21 1000.80 1000.41 1000.43 1000.77 1001.14 1001.29 1001.75 1002.25 1002.66 1003.14 1003.69 1004.19 1004.76 1005.18 1005.40 1005.44 1005.47 1005.41 1005.28 1005.04 1005.39 1005.82 1006.08 1005.92 1006.18 1006.57 1006.84 1007.14 1007.57 1008.15 1008.18 1008.43 1008.63
999.64 999.83 1000.36 1000.85 1001.44 1001.39 1001.69 1001.81 1001.96 1001.79 1001.54 1001.34 1001.31 1001.19 1001.35 1001.54 1001.79 1002.04 1002.34 1002.77 1003.25 1003.97 1004.52 1004.86 1005.15 1005.23 1005.27 1005.23 1005.14 1004.95 1004.69 1005.10 1005.51 1005.65 1005.81 1006.56 1007.01 1007.27 1007.49 1007.75 1008.36 1008.67 1008.80 1009.08
Thickness
5866 5844 5839 5857 5876 5885 5884 5816 5788 5853 5882 5878 5877 5869 5870 5879 5878 5869 5865 5858 5855 5853 5858 5854 5851 5850 5843 5836 5827 5820 5816 5814 5810 5802 5798 5798 5799 5805 5808 5807 5803 5802 5803 5796
5851 5840 5866 5878 5883 5882 5887 5879 5874 5846 5851 5876 5882 5879 5889 5874 5880 5881 5876 5869 5862 5858 5858 5856 5851 5850 5844 5835 5828 5822 5818 5814 5812 5809 5807 5808 5809 5811 5814 5812 5809 5806 5799 5794
5842 5862 5879 5873 5873 5870 5880 5878 5876 5820 5805 5848 5865 5873 5863 5844 5863 5889 5890 5884 5876 5867 5860 5859 5854 5851 5849 5840 5833 5825 5822 5817 5814 5814 5813 5813 5815 5813 5801 5796 5800 5806 5803 5796
5856 5878 5877 5870 5861 5876 5862 5899 5888 5856 5839 5831 5883 5839 5876 5859 5874 5880 5885 5889 5883 5876 5872 5870 5863 5855 5853 5847 5843 5835 5826 5821 5817 5816 5813 5811 5809 5791 5788 5784 5797 5797 5804 5798
5848 5861 5860 5858 5869 5881 5868 5895 5887 5884 5862 5868 5875 5830 5864 5879 5872 5865 5887 5889 5893 5889 5884 5875 5871 5866 5862 5858 5850 5841 5832 5825 5821 5817 5816 5815 5812 5798 5790 5779 5797 5796 5802 5797
5857 5886 5873 5868 5880 5881 5887 5873 5876 5875 5866 5835 5870 5855 5851 5852 5876 5884 5898 5898 5902 5899 5894 5887 5884 5879 5868 5865 5857 5848 5837 5829 5824 5820 5817 5813 5814 5807 5794 5777 5781 5795 5801 5793
5845 5854 5872 5875 5856 5872 5867 5853 5825 5825 5827 5829 5873 5873 5870 5882 5901 5894 5892 5899 5905 5907 5900 5890 5881 5877 5870 5863 5857 5851 5842 5832 5829 5825 5820 5818 5816 5819 5804 5791 5790 5793 5794 5787
5823 5812 5854 5870 5856 5854 5856 5856 5834 5802 5822 5844 5862 5805 5803 5899 5907 5901 5901 5902 5904 5904 5904 5892 5883 5878 5872 5866 5860 5855 5845 5838 5834 5828 5825 5823 5819 5818 5820 5810 5806 5802 5793 5788
5846 5841 5881 5873 5872 5868 5862 5839 5876 5855 5869 5854 5830 5846 5878 5896 5892 5894 5893 5891 5892 5897 5897 5891 5886 5880 5875 5869 5862 5856 5846 5841 5837 5832 5827 5824 5822 5817 5815 5814 5807 5799 5797 5794
5857 5836 5874 5867 5872 5870 5865 5887 5843 5850 5816 5817 5830 5843 5840 5862 5875 5887 5871 5874 5885 5890 5889 5889 5885 5882 5881 5876 5868 5859 5850 5842 5840 5835 5829 5826 5823 5819 5816 5812 5804 5800 5798 5796
5860 5855 5850 5863 5845 5845 5851 5849 5867 5878 5867 5835 5819 5821 5870 5865 5878 5883 5882 5883 5878 5885 5885 5887 5888 5886 5884 5880 5874 5865 5855 5846 5841 5838 5834 5828 5824 5820 5817 5814 5810 5806 5804 5797
5860 5861 5839 5845 5869 5873 5873 5863 5874 5848 5836 5862 5842 5828 5885 5880 5882 5883 5883 5883 5888 5891 5888 5888 5887 5886 5884 5881 5875 5869 5862 5855 5848 5844 5839 5833 5828 5825 5820 5816 5813 5810 5804 5798
5860 5849 5828 5836 5852 5865 5859 5874 5881 5887 5888 5826 5819 5822 5877 5880 5874 5878 5871 5873 5876 5879 5881 5882 5881 5877 5877 5877 5875 5870 5864 5859 5856 5849 5843 5836 5830 5826 5822 5818 5816 5810 5805 5798
5862 5845 5824 5815 5841 5862 5844 5860 5876 5877 5856 5854 5848 5844 5855 5859 5857 5863 5866 5869 5869 5870 5869 5872 5873 5870 5869 5871 5868 5864 5860 5859 5855 5851 5846 5839 5833 5828 5823 5818 5815 5811 5806 5800
5858 5830 5833 5828 5845 5869 5860 5864 5867 5861 5869 5847 5848 5843 5855 5855 5852 5857 5862 5863 5861 5859 5858 5856 5857 5857 5859 5860 5860 5857 5855 5853 5852 5847 5840 5834 5830 5824 5817 5812 5808 5810 5804 5799
5859 5830 5833 5830 5863 5866 5855 5866 5873 5870 5869 5872 5858 5818 5778 5856 5856 5850 5849 5850 5846 5845 5846 5846 5849 5852 5852 5851 5852 5852 5849 5847 5846 5840 5835 5835 5833 5828 5823 5818 5812 5806 5800 5796
5849 5851 5844 5831 5858 5853 5834 5859 5867 5869 5876 5871 5814 5789 5795 5783 5840 5841 5843 5844 5841 5841 5839 5839 5840 5845 5846 5849 5847 5841 5842 5843 5837 5834 5832 5830 5828 5824 5821 5820 5817 5811 5800 5795
5847 5848 5851 5826 5828 5790 5856 5878 5878 5870 5874 5840 5818 5808 5790 5738 5795 5847 5848 5840 5837 5837 5836 5836 5838 5841 5842 5841 5840 5839 5836 5831 5831 5831 5835 5835 5830 5826 5821 5819 5810 5804 5796 5793
5878 5858 5841 5811 5809 5810 5844 5855 5854 5846 5848 5847 5822 5815 5803 5786 5808 5832 5840 5842 5835 5835 5837 5837 5840 5842 5838 5837 5837 5832 5827 5823 5821 5820 5819 5820 5822 5818 5816 5814 5810 5808 5796 5785
5871 5867 5847 5828 5805 5773 5805 5847 5866 5870 5825 5869 5851 5826 5820 5846 5814 5809 5830 5833 5834 5835 5834 5833 5837 5837 5833 5831 5830 5827 5822 5818 5814 5814 5814 5815 5811 5804 5805 5804 5798 5800 5789 5784
5829 5832 5826 5831 5810 5793 5814 5844 5862 5807 5809 5858 5863 5859 5853 5830 5826 5829 5834 5832 5832 5830 5829 5831 5830 5825 5824 5826 5823 5817 5818 5816 5818 5818 5818 5813 5810 5805 5802 5801 5798 5790 5782 5777
5816 5812 5816 5822 5810 5770 5822 5835 5815 5827 5844 5850 5856 5853 5841 5837 5835 5832 5829 5826 5825 5822 5822 5822 5818 5817 5819 5821 5819 5814 5808 5813 5815 5814 5813 5811 5807 5805 5802 5798 5793 5785 5775 5767
5803 5819 5794 5776 5791 5818 5836 5828 5837 5843 5843 5840 5841 5846 5845 5840 5831 5827 5823 5820 5818 5818 5817 5818 5813 5810 5811 5810 5810 5804 5803 5804 5804 5804 5804 5806 5806 5803 5797 5789 5782 5772 5768 5757
5826 5834 5804 5798 5799 5819 5827 5830 5830 5834 5833 5836 5841 5838 5836 5831 5830 5822 5818 5815 5812 5813 5810 5810 5805 5800 5798 5802 5801 5803 5802 5799 5795 5794 5794 5795 5795 5790 5786 5782 5774 5766 5760 5752
5806 5813 5805 5803 5813 5815 5817 5819 5820 5823 5826 5828 5834 5833 5828 5826 5821 5818 5813 5810 5808 5807 5805 5800 5794 5791 5790 5793 5793 5797 5800 5795 5787 5784 5785 5781 5777 5773 5768 5765 5761 5758 5752 5749
5813 5802 5792 5779 5799 5801 5801 5812 5814 5809 5812 5818 5817 5817 5820 5818 5812 5811 5806 5806 5803 5798 5795 5791 5788 5787 5787 5788 5788 5790 5795 5788 5781 5778 5776 5767 5762 5758 5755 5752 5747 5741 5738 5735